When you browse on this site, cookies collect data to enhance your experience and personalize the content and advertising you see.
Visit our Privacy Policy to learn more. By continuing to use the site, you agree to this use of cookies and data.
  • In Österreich
  • Länderverzeichnis
  • Für 7 Tage
  • Wassertemperatur
  • Wetterkarte
  • News
  • Widgets
  • user-avatar
    Anmelden

    Stündliche Wetter Cairns

    Heute, 22 Oktober, Dienstag

    Zeit Temperatur Niederschläge Wind Luftdruck Luftfeuchtigkeit
    00:00 +22°C° 0.3 mm 4 m/S 761 mmHg 94%
    01:00 +22°C° 0.3 mm 4 m/S 760 mmHg 94%
    02:00 +22°C° 0.8 mm 4 m/S 760 mmHg 94%
    03:00 +22°C° 0.8 mm 4 m/S 760 mmHg 94%
    04:00 +22°C° 0 mm 5 m/S 760 mmHg 94%
    05:00 +23°C° 1.1 mm 5 m/S 760 mmHg 91%
    06:00 +23°C° 1.1 mm 5 m/S 761 mmHg 88%
    07:00 +24°C° 1.1 mm 6 m/S 761 mmHg 85%
    08:00 +26°C° 0.9 mm 6 m/S 761 mmHg 81%
    09:00 +26°C° 0.9 mm 6 m/S 762 mmHg 77%
    10:00 +27°C° 0.9 mm 6 m/S 762 mmHg 74%
    11:00 +28°C° 0.6 mm 6 m/S 761 mmHg 69%
    12:00 +29°C° 0.6 mm 6 m/S 761 mmHg 65%
    13:00 +29°C° 0.6 mm 6 m/S 760 mmHg 61%
    14:00 +29°C° 0.2 mm 6 m/S 760 mmHg 62%
    15:00 +29°C° 0.2 mm 7 m/S 760 mmHg 64%
    16:00 +28°C° 0.2 mm 7 m/S 760 mmHg 65%
    17:00 +27°C° 0.1 mm 6 m/S 760 mmHg 72%
    18:00 +24°C° 0.1 mm 6 m/S 761 mmHg 79%
    19:00 +23°C° 0.1 mm 6 m/S 761 mmHg 87%
    20:00 +23°C° 0.1 mm 6 m/S 761 mmHg 88%
    21:00 +22°C° 0.1 mm 6 m/S 762 mmHg 89%
    22:00 +22°C° 0.1 mm 6 m/S 763 mmHg 90%
    23:00 +22°C° 0.1 mm 6 m/S 762 mmHg 91%

    Morgen, 23 Oktober, Mittwoch

    Zeit Temperatur Niederschläge Wind Luftdruck Luftfeuchtigkeit
    00:00 +21°C° 0.1 mm 6 m/S 761 mmHg 92%
    01:00 +21°C° 0.1 mm 6 m/S 761 mmHg 93%
    02:00 +21°C° 0 mm 6 m/S 761 mmHg 92%
    03:00 +21°C° 0 mm 6 m/S 761 mmHg 92%
    04:00 +21°C° 0 mm 6 m/S 761 mmHg 92%
    05:00 +21°C° 0 mm 6 m/S 761 mmHg 89%
    06:00 +22°C° 0 mm 6 m/S 761 mmHg 86%
    07:00 +23°C° 0 mm 6 m/S 762 mmHg 82%
    08:00 +24°C° 0 mm 6 m/S 762 mmHg 72%
    09:00 +27°C° 0 mm 6 m/S 762 mmHg 62%
    10:00 +29°C° 0 mm 6 m/S 762 mmHg 51%
    11:00 +30°C° 0 mm 6 m/S 762 mmHg 49%
    12:00 +30°C° 0 mm 6 m/S 761 mmHg 47%
    13:00 +32°C° 0 mm 6 m/S 760 mmHg 45%
    14:00 +30°C° 0 mm 6 m/S 760 mmHg 49%
    15:00 +29°C° 0 mm 6 m/S 760 mmHg 52%
    16:00 +29°C° 0 mm 6 m/S 760 mmHg 56%
    17:00 +27°C° 0 mm 6 m/S 760 mmHg 65%
    18:00 +24°C° 0 mm 6 m/S 760 mmHg 74%
    19:00 +22°C° 0 mm 5 m/S 761 mmHg 83%
    20:00 +22°C° 0.1 mm 5 m/S 761 mmHg 86%
    21:00 +22°C° 0.1 mm 5 m/S 761 mmHg 88%
    22:00 +21°C° 0.1 mm 5 m/S 762 mmHg 91%
    23:00 +21°C° 0.1 mm 5 m/S 761 mmHg 91%

    übermorgen, 24 Oktober, Donnerstag

    Zeit Temperatur Niederschläge Wind Luftdruck Luftfeuchtigkeit
    00:00 +21°C° 0.1 mm 5 m/S 761 mmHg 92%
    01:00 +21°C° 0.1 mm 5 m/S 760 mmHg 93%
    02:00 +21°C° 0 mm 4 m/S 760 mmHg 94%
    03:00 +20°C° 0 mm 4 m/S 760 mmHg 94%
    04:00 +20°C° 0 mm 4 m/S 760 mmHg 95%
    05:00 +21°C° 0 mm 4 m/S 760 mmHg 92%
    06:00 +22°C° 0 mm 4 m/S 760 mmHg 90%
    07:00 +22°C° 0 mm 4 m/S 761 mmHg 87%
    08:00 +25°C° 0.1 mm 5 m/S 761 mmHg 77%
    09:00 +28°C° 0.1 mm 5 m/S 761 mmHg 67%
    10:00 +30°C° 0.1 mm 5 m/S 761 mmHg 57%
    11:00 +30°C° 0.1 mm 5 m/S 760 mmHg 56%
    12:00 +32°C° 0.1 mm 5 m/S 760 mmHg 54%
    13:00 +32°C° 0.1 mm 6 m/S 760 mmHg 53%
    14:00 +30°C° 0.1 mm 6 m/S 759 mmHg 56%
    15:00 +30°C° 0.1 mm 6 m/S 759 mmHg 59%
    16:00 +29°C° 0.1 mm 5 m/S 759 mmHg 61%
    17:00 +27°C° 0 mm 5 m/S 759 mmHg 70%
    18:00 +26°C° 0 mm 5 m/S 759 mmHg 80%
    19:00 +23°C° 0 mm 5 m/S 760 mmHg 89%
    20:00 +23°C° 0.1 mm 5 m/S 760 mmHg 91%
    21:00 +22°C° 0.1 mm 4 m/S 760 mmHg 94%
    22:00 +22°C° 0.1 mm 4 m/S 761 mmHg 96%
    23:00 +22°C° 0.2 mm 4 m/S 760 mmHg 96%

    25 Oktober, Freitag

    Zeit Temperatur Niederschläge Wind Luftdruck Luftfeuchtigkeit
    00:00 +22°C° 0.2 mm 4 m/S 760 mmHg 96%
    01:00 +22°C° 0.2 mm 4 m/S 759 mmHg 96%
    02:00 +22°C° 0.2 mm 4 m/S 759 mmHg 96%
    03:00 +22°C° 0.2 mm 4 m/S 759 mmHg 97%
    04:00 +22°C° 0.2 mm 3 m/S 759 mmHg 97%
    05:00 +24°C° 0.2 mm 3 m/S 759 mmHg 94%
    06:00 +24°C° 0.2 mm 3 m/S 760 mmHg 92%
    07:00 +25°C° 0.2 mm 3 m/S 760 mmHg 89%
    08:00 +27°C° 0.1 mm 4 m/S 760 mmHg 79%
    09:00 +29°C° 0.1 mm 4 m/S 760 mmHg 70%
    10:00 +32°C° 0.1 mm 4 m/S 760 mmHg 60%
    11:00 +32°C° 0.1 mm 4 m/S 759 mmHg 58%
    12:00 +33°C° 0.1 mm 4 m/S 759 mmHg 56%
    13:00 +33°C° 0.1 mm 4 m/S 758 mmHg 54%
    14:00 +32°C° 0 mm 5 m/S 758 mmHg 56%
    15:00 +32°C° 0 mm 5 m/S 758 mmHg 59%
    16:00 +30°C° 0 mm 5 m/S 757 mmHg 62%
    17:00 +28°C° 0 mm 5 m/S 758 mmHg 71%
    18:00 +27°C° 0 mm 4 m/S 758 mmHg 79%
    19:00 +25°C° 0 mm 4 m/S 759 mmHg 88%
    20:00 +23°C° 0.1 mm 4 m/S 759 mmHg 91%
    21:00 +24°C° 0.1 mm 3 m/S 759 mmHg 94%
    22:00 +24°C° 0.1 mm 3 m/S 759 mmHg 97%
    23:00 +24°C° 0.1 mm 3 m/S 759 mmHg 97%

    26 Oktober, Samstag

    Zeit Temperatur Niederschläge Wind Luftdruck Luftfeuchtigkeit
    00:00 +24°C° 0.1 mm 3 m/S 759 mmHg 96%
    01:00 +24°C° 0.1 mm 3 m/S 758 mmHg 96%
    02:00 +24°C° 0.2 mm 3 m/S 758 mmHg 96%
    03:00 +24°C° 0.2 mm 3 m/S 758 mmHg 96%
    04:00 +24°C° 0.2 mm 3 m/S 758 mmHg 96%
    05:00 +24°C° 0.1 mm 3 m/S 758 mmHg 94%
    06:00 +25°C° 0.1 mm 3 m/S 759 mmHg 91%
    07:00 +25°C° 0.1 mm 3 m/S 759 mmHg 89%
    08:00 +27°C° 0.1 mm 3 m/S 759 mmHg 79%
    09:00 +29°C° 0.1 mm 3 m/S 759 mmHg 70%
    10:00 +31°C° 0.1 mm 3 m/S 759 mmHg 60%
    11:00 +31°C° 0 mm 3 m/S 758 mmHg 59%
    12:00 +33°C° 0 mm 4 m/S 758 mmHg 58%
    13:00 +33°C° 0 mm 4 m/S 757 mmHg 56%
    14:00 +32°C° 0 mm 4 m/S 757 mmHg 59%
    15:00 +32°C° 0 mm 4 m/S 756 mmHg 62%
    16:00 +30°C° 0 mm 4 m/S 756 mmHg 64%
    17:00 +28°C° 0 mm 4 m/S 756 mmHg 72%
    18:00 +27°C° 0 mm 3 m/S 757 mmHg 80%
    19:00 +25°C° 0 mm 3 m/S 757 mmHg 88%
    20:00 +25°C° 0 mm 3 m/S 758 mmHg 89%
    21:00 +25°C° 0 mm 3 m/S 758 mmHg 90%
    22:00 +24°C° 0 mm 2 m/S 759 mmHg 91%
    23:00 +24°C° 0 mm 2 m/S 758 mmHg 93%

    27 Oktober, Sonntag

    Zeit Temperatur Niederschläge Wind Luftdruck Luftfeuchtigkeit
    00:00 +23°C° 0 mm 2 m/S 758 mmHg 95%
    01:00 +23°C° 0 mm 2 m/S 758 mmHg 97%
    02:00 +23°C° 0 mm 2 m/S 758 mmHg 96%
    03:00 +21°C° 0 mm 2 m/S 758 mmHg 96%
    04:00 +21°C° 0 mm 2 m/S 758 mmHg 96%
    05:00 +23°C° 0 mm 2 m/S 758 mmHg 90%
    06:00 +24°C° 0 mm 2 m/S 758 mmHg 85%
    07:00 +25°C° 0 mm 2 m/S 759 mmHg 79%
    08:00 +28°C° 0 mm 2 m/S 759 mmHg 67%
    09:00 +30°C° 0 mm 3 m/S 758 mmHg 56%
    10:00 +34°C° 0 mm 3 m/S 758 mmHg 44%
    11:00 +34°C° 0 mm 3 m/S 758 mmHg 43%
    12:00 +35°C° 0 mm 4 m/S 757 mmHg 42%
    13:00 +35°C° 0 mm 4 m/S 757 mmHg 41%
    14:00 +34°C° 0 mm 4 m/S 756 mmHg 45%
    15:00 +34°C° 0 mm 4 m/S 756 mmHg 48%
    16:00 +33°C° 0 mm 4 m/S 755 mmHg 52%
    17:00 +30°C° 0 mm 4 m/S 756 mmHg 63%
    18:00 +28°C° 0 mm 4 m/S 757 mmHg 75%
    19:00 +25°C° 0 mm 4 m/S 757 mmHg 87%
    20:00 +25°C° 0 mm 3 m/S 758 mmHg 90%
    21:00 +24°C° 0 mm 3 m/S 758 mmHg 94%
    22:00 +24°C° 0 mm 3 m/S 759 mmHg 97%
    23:00 +24°C° 0.1 mm 3 m/S 758 mmHg 97%

    28 Oktober, Montag

    Zeit Temperatur Niederschläge Wind Luftdruck Luftfeuchtigkeit
    00:00 +24°C° 0.1 mm 3 m/S 758 mmHg 96%
    01:00 +24°C° 0.1 mm 3 m/S 758 mmHg 96%
    02:00 +24°C° 0.1 mm 3 m/S 757 mmHg 96%
    03:00 +22°C° 0.1 mm 3 m/S 757 mmHg 97%
    04:00 +22°C° 0.1 mm 3 m/S 757 mmHg 97%
    05:00 +24°C° 0.1 mm 3 m/S 758 mmHg 94%
    06:00 +25°C° 0.1 mm 3 m/S 758 mmHg 90%
    07:00 +25°C° 0.1 mm 3 m/S 758 mmHg 87%
    08:00 +27°C° 0.1 mm 4 m/S 758 mmHg 75%
    09:00 +30°C° 0.1 mm 4 m/S 758 mmHg 64%
    10:00 +33°C° 0.1 mm 5 m/S 758 mmHg 52%
    11:00 +33°C° 0.1 mm 5 m/S 758 mmHg 50%
    12:00 +34°C° 0.1 mm 5 m/S 758 mmHg 47%
    13:00 +35°C° 0.1 mm 5 m/S 757 mmHg 45%
    14:00 +34°C° 0 mm 5 m/S 757 mmHg 48%
    15:00 +33°C° 0 mm 5 m/S 757 mmHg 51%
    16:00 +32°C° 0 mm 5 m/S 757 mmHg 54%
    17:00 +29°C° 0 mm 5 m/S 757 mmHg 65%
    18:00 +27°C° 0 mm 5 m/S 758 mmHg 75%
    19:00 +25°C° 0 mm 5 m/S 759 mmHg 86%
    20:00 +23°C° 0 mm 5 m/S 759 mmHg 88%
    21:00 +23°C° 0 mm 5 m/S 759 mmHg 91%
    22:00 +22°C° 0 mm 4 m/S 759 mmHg 93%
    23:00 +22°C° 0 mm 4 m/S 759 mmHg 94%
    Mehr zeigen